Regional Weather Roundup
Issued by NWS Bismarck, ND

Home | Current Version | Previous Version | Text Only | Print | Product List | Glossary On
Versions: 1 2 3 4 5 6 7 8 9 10 11 12 13 14 15 16 17 18 19 20 21 22 23 24 25 26 27 28 29 30 31 32 33 34 35 36 37 38 39 40 41 42 43 44 45 46 47 48 49 50
000
ASUS43 KBIS 290210
RWRBIS

NWR BROADCAST TEXT
NATIONAL WEATHER SERVICE BISMARCK ND
900 PM CDT SUN AUG 28 2016

NOTE: "FAIR" INDICATES FEW OR NO CLOUDS BELOW 12,000 FEET WITH NO
SIGNIFICANT WEATHER AND/OR OBSTRUCTIONS TO VISIBILITY.


CITY           SKY/WX    TMP DP  RH WIND       PRES   REMARKS
WILLISTON      CLEAR     76  48  37 N12       30.04R
MINOT          CLEAR     74  55  51 NW12      29.96R
MINOT AFB      CLEAR     75  55  48 NW9       29.96R
BISMARCK       CLEAR     76  61  59 E6        29.93R
DICKINSON      CLOUDY    77  43  29 N10       30.01R
GARRISON         N/A     75  56  51 N10       29.97R
HETTINGER ARPT CLEAR     79  45  29 N10       30.01R
JAMESTOWN      CLEAR     75  71  87 SE5       29.93R
CARRINGTON     FAIR      73  68  83 SE6       29.96R HAZE
HAZEN          FAIR      79  54  41 N12G17    29.98R
LINTON         FAIR      73  64  73 SE7       29.97R
MANDAN         FAIR      79  54  41 E7        29.95R
OAKES            N/A    N/A N/A N/A MISG        N/A
RUGBY          FAIR      75  66  73 S7        29.90S
STANLEY        FAIR      70  52  52 N10       30.06R
WATFORD CITY   FAIR      73  50  43 N9        30.05R
$$

CITY           SKY/WX    TMP DP  RH WIND       PRES   REMARKS
GRAND FORKS    CLOUDY    78  69  73 SE9       29.89F
GRAND FORKS AF NOT AVBL
DEVILS LAKE    CLEAR     74  70  87 SE5       29.93S
FARGO          PTCLDY    83  73  72 S17G24    29.91S
CAVALIER       MOCLDY    75  68  78 CALM      29.93R
GRAFTON        MOCLDY    73  72  94 E7        29.93R
GWINNER        FAIR      77  73  88 SE8       29.95R
LANGDON        FAIR      70  68  94 E7        29.95F
ROLLA          FAIR      72  68  88 SE8       29.94S
$$

CITY           SKY/WX    TMP DP  RH WIND       PRES   REMARKS
ABERDEEN       CLOUDY    85  67  54 S20G31    29.93S
MOBRIDGE       CLEAR     75  53  46 E7        29.92R
BUFFALO          N/A     80  45  28 N13       29.96R
RAPID CITY     CLEAR     73  50  44 NE14      30.01R
GLASGOW        PTCLDY    74  48  39 N7        30.07R
SIDNEY         CLEAR     77  50  38 N9        30.03R
WOLF POINT     CLEAR     78  47  33 N14       30.05R
MILES CITY     CLEAR     80  42  25 NE10      30.02R
BAKER          CLEAR     77  43  29 N10       30.06R
$$

CITY           SKY/WX    TMP DP  RH WIND       PRES   REMARKS
BILLINGS       CLOUDY    79  42  26 N12       30.08R
GREAT FALLS    PTCLDY    68  45  43 NE13      30.16R
REGINA         PTCLDY    61  48  63 NW13      30.10R
ESTEVAN        PTCLDY    63  54  72 NW8       30.04R
$$





USA.gov is the U.S. government's official web portal to all federal, state and local government web resources and services.